BANXING-2

Last updated on July 18, 2019, 12:02 a.m. UTC

1 41834U 16057H   19196.85395050  .26484373  93126-5  95567-4 0  9999
2 41834  42.7397   1.0114 0012294 179.0025 218.7654 16.57123749157307

Satellite is not in orbit.